User: anonymous   Login
Location: Unspecified
(0.0000°N, 0.0000°E)
Time: 16:38:06
(UTC+00:00)
Language:

Gonets-D1 - Orbit

View from above orbital plane
View from above orbital plane
View from above satellite
View from above satellite

Ground track
Ground track

The orbit data is extracted from the following two-line orbital elements,

1 24727U 97006C   17204.79860884 +.00000001 +00000-0 -55210-4 0  9997
2 24727 082.6052 162.1923 0000778 077.5210 328.8146 12.62317715941512
Epoch (UTC): 23 July 2017 19:09:59
Eccentricity: 0.0000778
inclination: 82.6052°
perigee height: 1413 km
apogee height: 1414 km
right ascension of ascending node: 162.1923°
argument of perigee: 77.5210°
revolutions per day: 12.62317715
mean anomaly at epoch: 328.8146°
orbit number at epoch: 94151

The dashed part of the orbit path shows where the satellite is in the earth's shadow,  

DLR